EW5460 Weather Reports


Display with metric or nautical units.
time (UTC)temp
F
wind
direction
speed
MPH
gust
MPH
rain 1hr
in
rain 24hr
in
rain mn
in
humidity
%
barometer
mb
20190222170114 50 24 0.0 3.0 0.02 0.28 0.22 98 1022.6
20190222164612 50 22 0.0 5.0 0.04 0.27 0.21 98 1022.6
20190222163057 51 360 0.0 3.0 0.04 0.27 0.21 98 1022.9
20190222161647 52 126 0.0 3.0 0.03 0.26 0.20 98 1022.6
20190222160058 54 16 0.0 6.0 0.07 0.26 0.20 98 1022.2
20190222154604 56 283 0.0 7.0 0.04 0.23 0.17 99 1022.1
20190222153054 56 323 0.0 0.0 0.04 0.23 0.17 99 1021.5
20190222151605 56 323 0.0 3.0 0.11 0.23 0.17 99 1021.3
20190222150053 57 295 0.0 1.0 0.09 0.19 0.13 99 1021.1
20190222144601 57 32 0.0 3.0 0.09 0.19 0.13 99 1021.2
20190222143039 56 174 0.0 0.0 0.09 0.19 0.13 99 1020.9
20190222141544 55 248 0.0 0.0 0.02 0.12 0.06 99 1020.7
20190222140056 54 248 0.0 0.0 0.00 0.10 0.04 99 1020.8
20190222134533 54 248 0.0 0.0 0.00 0.10 0.04 99 1020.7
20190222133033 54 248 0.0 0.0 0.00 0.10 0.04 99 1020.5
20190222131516 54 248 0.0 0.0 0.00 0.10 0.04 98 1020.5
20190222130030 54 248 0.0 0.0 0.00 0.10 0.04 99 1020.4
20190222124516 54 248 0.0 0.0 0.00 0.10 0.04 99 1020.4
20190222123023 54 248 0.0 0.0 0.00 0.10 0.04 99 1020.1
20190222121513 54 248 0.0 0.0 0.00 0.10 0.04 99 1020.0
20190222120005 54 248 0.0 0.0 0.00 0.10 0.04 99 1020.1
20190222114502 54 248 0.0 0.0 0.00 0.11 0.04 99 1020.0
20190222113308 54 248 0.0 0.0 0.00 0.11 0.04 99 1020.0
20190222111738 54 248 0.0 0.0 0.00 0.11 0.04 98 1019.9
20190222110254 54 248 0.0 0.0 0.00 0.11 0.04 98 1019.8
20190222104743 54 248 0.0 0.0 0.00 0.44 0.04 98 1019.6
20190222103137 54 248 0.0 0.0 0.00 0.44 0.04 98 1019.4
20190222101712 54 248 0.0 0.0 0.00 0.44 0.04 98 1019.5
20190222100130 54 248 0.0 0.0 0.00 0.44 0.04 98 1019.4
20190222094709 54 248 0.0 0.0 0.00 0.51 0.04 98 1019.4
20190222093157 55 248 0.0 0.0 0.00 0.51 0.04 98 1019.3
20190222091717 55 248 0.0 0.0 0.00 0.51 0.04 98 1019.1
20190222090157 55 248 0.0 0.0 0.00 0.51 0.04 98 1019.1
20190222084653 55 248 0.0 0.0 0.00 0.60 0.04 98 1018.7
20190222083137 55 248 0.0 0.0 0.00 0.60 0.04 98 1018.7
20190222081631 55 248 0.0 0.0 0.00 0.60 0.04 98 1018.5
20190222080144 55 248 0.0 0.0 0.00 0.60 0.04 98 1018.7
20190222074656 55 248 0.0 0.0 0.00 0.71 0.04 98 1018.8
20190222073131 56 248 0.0 0.0 0.00 0.71 0.04 98 1018.8
20190222071641 55 248 0.0 0.0 0.00 0.71 0.04 98 1018.8
20190222070127 55 248 0.0 0.0 0.00 0.71 0.04 98 1018.9
20190222064623 55 248 0.0 0.0 0.00 0.88 0.04 98 1018.9
20190222063131 55 248 0.0 0.0 0.00 0.88 0.04 98 1018.6
20190222061559 56 248 0.0 0.0 0.01 0.88 0.04 98 1019.0
20190222060129 56 248 0.0 0.0 0.04 0.88 0.04 98 1019.2
20190222054708 56 248 0.0 0.0 0.05 0.96 0.04 98 1019.3
20190222053048 56 248 0.0 0.0 0.05 0.96 0.04 98 1019.3
20190222051625 56 248 0.0 0.0 0.05 0.95 0.03 98 1019.4
20190222050109 56 248 0.0 0.0 0.02 0.92 0.00 98 1019.5
20190222044619 56 248 0.0 0.0 0.01 1.00 0.91 98 1019.4
20190222043103 56 248 0.0 0.0 0.01 1.00 0.91 98 1019.3
20190222041627 56 248 0.0 0.0 0.00 0.99 0.90 98 1019.4
20190222040116 56 287 0.0 6.0 0.00 0.99 0.90 98 1019.1
20190222034641 56 226 0.0 0.0 0.00 1.20 0.90 98 1019.2
20190222033204 56 226 0.0 0.0 0.00 1.20 0.90 98 1019.1
20190222031557 56 226 0.0 0.0 0.00 1.20 0.90 98 1018.8
20190222030119 56 226 0.0 0.0 0.00 1.20 0.90 98 1018.6
20190222024606 56 226 0.0 0.0 0.01 1.32 0.90 98 1018.6
20190222023042 56 226 0.0 0.0 0.02 1.32 0.90 98 1018.7
20190222021614 56 278 1.0 4.0 0.04 1.32 0.90 98 1018.7
20190222020049 56 278 0.0 0.0 0.04 1.32 0.90 98 1018.6
20190222014601 56 278 0.0 0.0 0.03 1.40 0.89 98 1018.3
20190222013045 56 278 0.0 0.0 0.02 1.39 0.88 98 1018.4
20190222011536 56 278 0.0 0.0 0.00 1.37 0.86 97 1018.5
20190222010103 56 278 0.0 0.0 0.00 1.37 0.86 98 1018.5
20190222004638 56 278 0.0 0.0 0.00 1.40 0.86 97 1018.5
20190222003132 56 278 0.0 0.0 0.00 1.40 0.86 98 1018.4
20190222001537 56 278 0.0 0.0 0.00 1.40 0.86 97 1018.7
20190222000110 56 278 0.0 0.0 0.00 1.40 0.86 97 1018.4
20190221234533 56 278 0.0 0.0 0.00 1.41 0.86 97 1018.8
20190221233056 57 278 0.0 0.0 0.00 1.41 0.86 97 1019.0
20190221231618 57 278 0.0 0.0 0.00 1.41 0.86 97 1018.8
20190221230035 57 278 0.0 0.0 0.00 1.41 0.86 97 1018.6
20190221224650 57 278 0.0 0.0 0.00 1.54 0.86 97 1018.6
20190221223029 57 278 0.0 0.0 0.00 1.54 0.86 97 1018.6
20190221221601 57 278 0.0 0.0 0.00 1.54 0.86 97 1018.8
20190221220045 57 278 0.0 0.0 0.00 1.54 0.86 97 1018.8
20190221214610 57 278 0.0 0.0 0.00 1.54 0.86 97 1018.6
20190221213030 56 278 0.0 0.0 0.00 1.54 0.86 97 1018.8
20190221211531 56 278 0.0 0.0 0.00 1.54 0.86 97 1019.1
20190221210104 57 278 0.0 0.0 0.00 1.54 0.86 97 1019.1
20190221204524 56 278 0.0 0.0 0.00 1.54 0.86 97 1019.0
20190221203033 56 278 0.0 0.0 0.00 1.54 0.86 97 1019.0
20190221201524 56 278 0.0 0.0 0.00 1.54 0.86 97 1018.9
20190221200023 56 278 0.0 0.0 0.00 1.54 0.86 98 1018.8
20190221194518 55 278 0.0 0.0 0.00 1.54 0.86 98 1019.1
20190221193014 54 278 0.0 0.0 0.00 1.54 0.86 98 1019.2
20190221191513 54 278 0.0 0.0 0.00 1.54 0.86 98 1019.2
20190221190011 53 278 0.0 0.0 0.00 1.54 0.86 99 1019.2
20190221184502 52 278 0.0 0.0 0.00 1.54 0.86 99 1019.4
20190221183157 52 278 0.0 0.0 0.00 1.54 0.86 99 1019.8
20190221181659 52 278 0.0 3.0 0.00 1.54 0.86 99 1019.7
20190221180150 51 278 0.0 0.0 0.00 1.54 0.86 99 1020.0
20190221174739 51 278 0.0 0.0 0.00 1.54 0.86 99 1020.1
20190221173343 50 278 0.0 0.0 0.00 1.54 0.86 99 1020.5
20190221171658 50 278 0.0 0.0 0.00 1.54 0.86 98 1020.6